OBJECT BA, 43806

Orbit data source: Space-Track

You're viewing an Uncataloged Satellite

Recently launched and/or uncataloged satellites may have evolving metadata. Metadata may include but not limited to: Owner, Maufacturer, Bus, Motor, and Mission.

OBJECT BA, 43806 is a satellite in SSO that was launched on Mon, 03 Dec 2018 UTC via an FALCON 9 launch vehicle from the Air Force Western Test Range (AFWTR). Unknown objects in Earth's orbit typically refer to objects detected orbiting the Earth but have not yet been identified or cataloged. These objects could be anything from previously untracked satellites, spent rocket stages, debris from satellite collisions, or even natural meteoroids temporarily captured by Earth's gravity.

Loading next visibility...
Identifier
43806, 2018-099BA
Orbit
SSO
Country
Flag of TBDTBD
Related business
None
Manufacturer
Unknown
Mission
Non-operational Amateur Technology
Bus & Motor
Unknown
Mass
Unknown
Launch date (UTC)
2018-12-03 (7 years ago)
Launch vehicle
FALCON 9
Launch site
Air Force Western Test Range (AFWTR)
Object type
Unknown
Shape & HBR
Box, 0.1 m
Radar Cross Section
0.015 m², Small (<0.1 m²)

Expand to show TLE details & history
Last TLE update: 9 hours ago

TLE from 9 hours ago
0 OBJECT BA
1 43806U 18099BA  25299.66164475  .00007034  00000-0  40617-3 0  9999
2 43806  97.4354 347.9940 0009277  64.3322 295.8867 15.12592555377097
Epoch: 2025-10-26T15:52Z
TLE epoch observation values (Epoch: 2025-10-26T15:52:46.106Z)
Latitude
0.00006°
Longitude
74.52725°
Altitude
528.583 km
Speed
7.6 km/s
True Right ascension
23h 11m 58s
True Declination
0° 00' 00"
Sunlit
Object was in full shadow at epoch
Visualization orbit readout
Latitude
Unknown
Longitude
Unknown
Altitude
Unknown
Speed
Unknown
Apparent Right ascension
Unknown
Apparent Declination
Unknown
Sunlit
N/A
Visualization observer readout
Local Sidereal Time
20:41:11
Azimuth
Unknown
Elevation
Unknown
Doppler factor
Unknown
Orbital elements
Apogee altitude
531.678 km
Perigee altitude
518.87 km
Semi-major axis
6,903.411 km
Eccentricity
0.00093
Inclination
97.4354°
RAAN
347.994°
Arg. of periapsis
64.3322°
True anomaly
295.79101°
Mean anomaly
295.8867°
Eccentric anomaly
295.83886°
Mean motion
3.78397 °/min
Orbital period
95.14 mins
BSTAR
0.00040617
Loading maneuver chart data...
Computing Atmospheric mass density...
Loading historical data...
Loading historical data...
Loading historical data...
Loading historical data...
Loading historical data...
Loading historical data...
Loading historical data...

Documentation

Showing up to 5 results
|